Regional Weather Roundup
Issued by NWS

Home | Current Version | Previous Version | Text Only | Print | Product List | Glossary Off
Versions: 1 2 3 4 5 6 7 8 9 10 11 12 13 14 15 16 17 18 19 20 21 22 23 24 25 26 27 28 29 30 31 32 33 34 35 36 37 38 39 40 41 42 43 44 45 46 47 48 49 50

000
ASUS43 KMKX 300921
RWRWI

WISCONSIN REGIONAL WEATHER ROUNDUP
NATIONAL WEATHER SERVICE MILWAUKEE/SULLIVAN WI
400 AM CDT TUE SEP 30 2014

NOTE: "FAIR" INDICATES FEW OR NO CLOUDS BELOW 12,000 FEET WITH NO
SIGNIFICANT WEATHER AND/OR OBSTRUCTIONS TO VISIBILITY.

WIZ001-002-006>008-014>016-023>028-301000-
NORTHWEST WISCONSIN

CITY           SKY/WX    TMP DP  RH WIND       PRES   REMARKS
SUPERIOR ARPT  CLOUDY    43  39  86 SE6       30.17S
ASHLAND        CLOUDY    42  39  89 CALM      30.17S
HAYWARD        CLOUDY    41  38  89 NE3       30.15S
SIREN          CLOUDY    42  39  90 E7        30.13F
CUMBERLAND     CLOUDY    39  36  87 E8        30.13S WCI  34
RICE LAKE      CLOUDY    41  37  87 E6        30.14F
CHETEK         CLOUDY    41  38  87 NE6       30.13F
LADYSMITH      CLOUDY    41  37  87 NE5       30.16S
EAU CLAIRE     CLOUDY    43  37  79 NE8       30.12F
MENOMONIE      CLOUDY    43  38  82 E10       30.13S
NEW RICHMOND   CLOUDY    41  38  88 E8        30.12F
OSCEOLA        CLOUDY    42  41  95 NE9       30.15F
$$

WIZ003>005-009-010-017-018-301000-
NORTH CENTRAL WISCONSIN

CITY           SKY/WX    TMP DP  RH WIND       PRES   REMARKS
MANITOWISH WTR CLOUDY    37  37 100 NE3       30.12F
ARBOR VITAE    CLOUDY    39  37  92 NE6       30.12F WCI  35
WOODRUFF       CLOUDY    39  37  92 NE6       30.12F WCI  35
RHINELANDER    CLOUDY    38  36  92 NE5       30.13S WCI  34
EAGLE RIVER    CLOUDY    37  37 100 N5        30.12S WCI  34
LAND O LAKES   CLOUDY    38  37  98 NE7       30.13S WCI  32
PHILLIPS       CLOUDY    37  35  94 NE5       30.13R WCI  33
TOMAHAWK       CLOUDY    38  35  89 NE6       30.13F WCI  33
MEDFORD        CLOUDY    38  35  90 E6        30.12F WCI  33
MERRILL        CLOUDY    39  37  91 NE3       30.12S
$$

WIZ029-030-035-036-043>047-301000-
CENTRAL WISCONSIN

CITY           SKY/WX    TMP DP  RH WIND       PRES   REMARKS
WAUSAU         CLOUDY    40  36  86 NE6       30.12R
MOSINEE        CLOUDY    37  37 100 N6        30.14R WCI  33
MARSHFIELD     CLOUDY    42  36  79 NE7       30.12S
STEVENS POINT  CLOUDY    38  35  87 NE5       30.13S WCI  35
WAUPACA        CLOUDY    43  40  88 NE3       30.12S
WAUTOMA        NOT AVBL
WISC RAPIDS    CLOUDY    41  36  82 E9        30.14R
CAMP DOUGLAS   CLOUDY    43  43 100 E8        30.12R
$$

WIZ011>013-019>022-031-037>040-048>050-301000-
NORTHEAST WISCONSIN

CITY           SKY/WX    TMP DP  RH WIND       PRES   REMARKS
ANTIGO         CLOUDY    38  37  93 NE12      30.11S WCI  31
SHAWANO        CLOUDY    45  38  78 N9        30.13R
OCONTO         CLOUDY    42  40  92 N7        30.10S
STURGEON BAY   NOT AVBL
GREEN BAY      CLOUDY    43  39  86 N10       30.09F
MANITOWOC      NOT AVBL
APPLETON       CLOUDY    41  39  93 N7        30.11R FOG
CLINTONVILLE   CLOUDY    43  36  75 N7        30.12R
OSHKOSH        CLOUDY    44  39  82 N9        30.10R
$$

WIZ032>034-041-042-053>061-301000-
SOUTHWEST WISCONSIN

CITY           SKY/WX    TMP DP  RH WIND       PRES   REMARKS
LA CROSSE      CLOUDY    48  42  80 NE8       30.11S
SPARTA         CLOUDY    45  41  88 E7        30.12R
VIROQUA        CLOUDY    46  46 100 NE6       30.09R
BOSCOBEL       CLOUDY    52  45  77 NE6       30.09
PRAIRIE DU CHI CLOUDY    52  46  79 NE8       30.07S
PLATTEVILLE    CLOUDY    48  46  93 E9        30.08R
$$

WIZ056-057-062-063-064-067-068-301000-
SOUTH CENTRAL WISCONSIN

CITY           SKY/WX    TMP DP  RH WIND       PRES   REMARKS
REEDSBURG      CLOUDY    44  40  88 NE7       30.10S
BARABOO/DELLS  CLOUDY    44  40  86 NE7       30.10S
LONE ROCK      CLOUDY    51  42  71 E10       30.10R
MINERAL POINT  CLOUDY    46  45  93 NE8       30.08R
MADISON        CLOUDY    46  41  82 NE9       30.09S
MIDDLETON      CLOUDY    47  42  84 NE9       30.10R
WATERTOWN      CLOUDY    44  42  93 N8        30.09S
MONROE         CLOUDY    46  45  93 NE7       30.07R
JANESVILLE     CLOUDY    50  43  76 NE7       30.06F
$$

WIZ051-052-058>065-066-070>072-301000-
SOUTHEAST WISCONSIN

CITY           SKY/WX    TMP DP  RH WIND       PRES   REMARKS
MILWAUKEE      CLOUDY    46  40  79 N8        30.08S
WAUKESHA       CLOUDY    43  37  81 N6        30.09S
MILWAUKEE/TIMM CLOUDY    43  37  81 N10G20    30.09S
RACINE         CLOUDY    46  43  89 N9        30.08S FOG
BURLINGTON     CLOUDY    45  41  87 NE8       30.07S
KENOSHA        CLOUDY    47  42  83 N9        30.07S
FOND DU LAC    CLOUDY    45  39  79 NE12      30.11R
SHEBOYGAN      CLOUDY    44  39  82 N10       30.08S
WEST BEND      CLOUDY    43  37  81 N12       30.08S
JUNEAU         CLOUDY    43  39  87 N10G16    30.10S
$$

LSZ147-162-301000-
LAKE SUPERIOR

STATION/POSITION TIME  TEMP    WIND        PRES    WAVE
                       AIR SEA DIR/SP/G            HT/PER
                 (UTC) (F)     (DEG/KT/KT) (MB)    (FT/S)
W MID LAKE BUOY  0850   44 49   50/ 10/ 14 1021.9F   4/ 6
DEVILS ISLAND    0900   45      50/ 16/ 20 1022.1F
SAXON HARBOR     0800   44      CALM  /  7 1021.3
$$

LMZ867-665-643>646-301000-
LAKE MICHIGAN

STATION/POSITION TIME  TEMP    WIND        PRES    WAVE
                       AIR SEA DIR/SP/G            HT/PER
                 (UTC) (F)     (DEG/KT/KT) (MB)    (FT/S)
CHAMBERS ISLAND  0800   46     340/ 21/ 27 1019.0F
S GREEN BAY BUOY 0900   46                 1019.8
N MID LAKE BUOY  0850   46 58  350/ 17/ 23 1017.8R   4/ 5
NORTHPORT PIER   0800   46     350/ 16/ 21 1019.0R
KEWAUNEE LAKESHO 0800   44     340/  5/ 10 1017.8F
SHEBOYGAN LAKESH 0900   46 54  360/ 19/ 23 1019.1R
PORT WASHINGTON  0840          360/  7/ 13 1019.3S
ATWATER BUOY     0900   48     340/ 16/ 21 1019.3R
MILWAUKEE LAKESH 0900          340/ 11/ 13   N/A
S MID LAKE BUOY  0850   53 61  350/ 19/ 23 1016.8S   7/ 8
KENOSHA   LAKESH 0900          340/ 13/ 17 1017.9S
$$

TC  - TEMPERATURE IN CELSIUS
VSB - VISIBILITY IN STATUTE MILES
WCI - WIND CHILL INDEX
HX  - HEAT INDEX



USA.gov is the U.S. government's official web portal to all federal, state and local government web resources and services.